TimeCDT,TemperatureF,Dew PointF,Humidity,Sea Level PressureIn,VisibilityMPH,Wind Direction,Wind SpeedMPH,Gust SpeedMPH,PrecipitationIn,Events,Conditions,WindDirDegrees,DateUTC
12:12 AM,33.3,31.8,94,29.72,4.0,SSW,3.5,-,N/A,,Clear,200,2012-10-20 05:12:00
12:32 AM,32.5,31.5,96,29.73,4.0,SSW,4.6,-,N/A,,Clear,200,2012-10-20 05:32:00
12:52 AM,32.4,31.3,96,29.73,4.0,South,4.6,-,N/A,,Clear,190,2012-10-20 05:52:00
1:12 AM,32.0,31.1,96,29.73,3.0,South,4.6,-,N/A,,Clear,190,2012-10-20 06:12:00
1:32 AM,32.9,31.6,95,29.74,4.0,SSW,3.5,-,N/A,,Clear,210,2012-10-20 06:32:00
1:52 AM,32.0,31.1,96,29.74,4.0,South,4.6,-,N/A,,Clear,180,2012-10-20 06:52:00
2:12 AM,32.7,31.6,96,29.75,1.2,Calm,Calm,-,N/A,,Overcast,0,2012-10-20 07:12:00
2:32 AM,34.3,32.7,94,29.74,0.2,South,3.5,-,N/A,Fog,Fog,170,2012-10-20 07:32:00
2:52 AM,36.0,34.5,94,29.74,0.2,SW,4.6,-,N/A,Fog,Fog,220,2012-10-20 07:52:00
3:12 AM,34.9,33.3,94,29.74,0.2,Calm,Calm,-,N/A,Fog,Fog,0,2012-10-20 08:12:00
3:32 AM,35.6,34.0,94,29.74,0.2,SSW,4.6,-,N/A,Fog,Fog,210,2012-10-20 08:32:00
3:52 AM,36.7,35.1,94,29.74,0.2,SSW,4.6,-,N/A,Fog,Fog,210,2012-10-20 08:52:00
4:12 AM,37.4,35.8,94,29.75,0.2,SW,4.6,-,N/A,Fog,Fog,220,2012-10-20 09:12:00
4:32 AM,38.1,36.5,94,29.75,0.2,SSW,3.5,-,N/A,Fog,Fog,210,2012-10-20 09:32:00
4:52 AM,39.2,37.4,93,29.75,0.2,Calm,Calm,-,N/A,Fog,Fog,0,2012-10-20 09:52:00
5:12 AM,40.1,38.5,94,29.76,0.2,Calm,Calm,-,N/A,Fog,Fog,0,2012-10-20 10:12:00
5:32 AM,41.5,40.1,95,29.76,0.5,WSW,4.6,-,N/A,Fog,Fog,240,2012-10-20 10:32:00
5:52 AM,41.5,40.1,95,29.76,0.8,West,4.6,-,N/A,,Overcast,260,2012-10-20 10:52:00
6:12 AM,41.4,39.7,94,29.77,0.5,WSW,3.5,-,N/A,Fog,Fog,250,2012-10-20 11:12:00
6:32 AM,41.0,39.4,94,29.78,0.5,WSW,3.5,-,N/A,Fog,Fog,250,2012-10-20 11:32:00
6:52 AM,41.2,39.6,94,29.78,0.5,SW,5.8,-,N/A,Fog,Fog,230,2012-10-20 11:52:00
7:12 AM,41.5,40.1,95,29.78,0.5,WSW,3.5,-,N/A,Fog,Fog,240,2012-10-20 12:12:00
7:32 AM,41.9,40.5,95,29.78,0.5,SW,3.5,-,N/A,Fog,Fog,220,2012-10-20 12:32:00
7:52 AM,42.1,40.5,94,29.78,0.2,WSW,3.5,-,N/A,Fog,Fog,240,2012-10-20 12:52:00
8:12 AM,42.4,40.8,94,29.79,0.2,SW,4.6,-,N/A,Fog,Fog,230,2012-10-20 13:12:00
8:32 AM,42.4,41.0,95,29.80,0.5,WSW,3.5,-,N/A,Fog,Fog,240,2012-10-20 13:32:00
8:52 AM,42.4,41.0,95,29.81,0.8,Calm,Calm,-,N/A,,Overcast,0,2012-10-20 13:52:00
9:12 AM,42.4,41.0,95,29.80,0.8,Calm,Calm,-,N/A,,Overcast,0,2012-10-20 14:12:00
9:32 AM,42.8,41.2,94,29.80,0.5,South,3.5,-,N/A,Fog,Fog,180,2012-10-20 14:32:00
9:52 AM,42.8,41.4,95,29.80,1.0,Calm,Calm,-,N/A,,Overcast,0,2012-10-20 14:52:00
10:12 AM,43.3,41.9,95,29.81,2.0,SSE,4.6,-,N/A,,Overcast,160,2012-10-20 15:12:00
10:32 AM,43.9,42.4,95,29.81,2.5,South,3.5,-,N/A,,Overcast,170,2012-10-20 15:32:00
10:52 AM,43.9,42.4,95,29.82,4.0,Calm,Calm,-,N/A,,Overcast,0,2012-10-20 15:52:00
11:12 AM,44.6,43.0,94,29.82,7.0,Calm,Calm,-,N/A,,Overcast,0,2012-10-20 16:12:00
11:32 AM,45.1,43.7,95,29.82,10.0,SSW,3.5,-,N/A,,Overcast,210,2012-10-20 16:32:00
11:52 AM,45.9,44.2,94,29.81,10.0,SW,8.1,-,N/A,,Overcast,230,2012-10-20 16:52:00
12:12 PM,47.3,45.1,92,29.81,10.0,South,8.1,-,N/A,,Overcast,190,2012-10-20 17:12:00
12:32 PM,47.7,42.4,82,29.81,10.0,WSW,9.2,-,N/A,,Overcast,240,2012-10-20 17:32:00
12:52 PM,49.6,42.8,77,29.80,10.0,SW,5.8,-,N/A,,Mostly Cloudy,230,2012-10-20 17:52:00
1:12 PM,50.9,42.3,72,29.80,10.0,SSW,8.1,-,N/A,,Mostly Cloudy,210,2012-10-20 18:12:00
1:32 PM,50.5,42.3,73,29.80,10.0,SSW,4.6,-,N/A,,Mostly Cloudy,210,2012-10-20 18:32:00
1:52 PM,51.4,41.9,70,29.79,10.0,SW,5.8,-,N/A,,Mostly Cloudy,220,2012-10-20 18:52:00
2:12 PM,53.1,42.3,67,29.79,10.0,SSW,6.9,-,N/A,,Mostly Cloudy,200,2012-10-20 19:12:00
2:32 PM,52.9,41.0,64,29.78,10.0,SSW,6.9,-,N/A,,Scattered Clouds,210,2012-10-20 19:32:00
2:52 PM,52.0,41.5,68,29.77,10.0,South,10.4,-,N/A,,Scattered Clouds,170,2012-10-20 19:52:00
3:12 PM,54.0,41.9,64,29.77,10.0,South,6.9,-,N/A,,Mostly Cloudy,170,2012-10-20 20:12:00
3:32 PM,54.3,41.9,63,29.77,10.0,SSE,4.6,-,N/A,,Scattered Clouds,160,2012-10-20 20:32:00
3:52 PM,53.4,41.9,65,29.77,10.0,South,6.9,-,N/A,,Scattered Clouds,190,2012-10-20 20:52:00
4:12 PM,54.5,42.1,63,29.77,10.0,South,9.2,-,N/A,,Scattered Clouds,170,2012-10-20 21:12:00
4:32 PM,54.0,42.8,66,29.78,10.0,SSW,11.5,-,N/A,,Mostly Cloudy,210,2012-10-20 21:32:00
4:52 PM,52.3,42.8,70,29.78,10.0,SSW,6.9,-,N/A,,Overcast,200,2012-10-20 21:52:00
5:12 PM,50.9,43.0,74,29.78,10.0,SSW,5.8,-,N/A,,Scattered Clouds,200,2012-10-20 22:12:00
5:32 PM,50.9,42.8,74,29.78,10.0,SSW,6.9,-,N/A,,Mostly Cloudy,200,2012-10-20 22:32:00
5:52 PM,50.4,42.8,75,29.79,10.0,SSW,9.2,-,N/A,,Overcast,200,2012-10-20 22:52:00
6:12 PM,50.0,42.8,76,29.80,10.0,South,4.6,-,N/A,,Overcast,190,2012-10-20 23:12:00
6:32 PM,49.6,42.8,77,29.80,10.0,South,5.8,-,N/A,,Overcast,190,2012-10-20 23:32:00
6:52 PM,49.5,43.0,78,29.80,10.0,South,3.5,-,N/A,,Overcast,190,2012-10-20 23:52:00
7:12 PM,48.7,42.6,79,29.80,10.0,South,5.8,-,N/A,,Overcast,170,2012-10-21 00:12:00
7:32 PM,48.6,42.6,80,29.80,10.0,SSE,5.8,-,N/A,,Overcast,160,2012-10-21 00:32:00
7:52 PM,48.6,42.4,79,29.80,10.0,SSE,8.1,-,N/A,,Overcast,160,2012-10-21 00:52:00
8:12 PM,48.6,42.4,79,29.80,10.0,SSE,6.9,-,N/A,,Overcast,150,2012-10-21 01:12:00
8:32 PM,48.6,42.4,79,29.81,10.0,SSE,8.1,-,N/A,,Overcast,160,2012-10-21 01:32:00
8:52 PM,48.6,42.4,79,29.81,10.0,South,8.1,-,N/A,,Overcast,170,2012-10-21 01:52:00
9:12 PM,48.6,42.4,79,29.81,10.0,South,6.9,-,N/A,,Overcast,170,2012-10-21 02:12:00
9:32 PM,48.9,42.8,79,29.81,10.0,South,9.2,-,N/A,,Overcast,170,2012-10-21 02:32:00
9:52 PM,48.7,42.8,80,29.81,10.0,SSE,8.1,-,N/A,,Overcast,160,2012-10-21 02:52:00
10:12 PM,48.4,42.4,80,29.81,10.0,SSE,6.9,-,N/A,,Overcast,160,2012-10-21 03:12:00
10:32 PM,47.8,42.3,81,29.82,10.0,South,6.9,-,N/A,,Mostly Cloudy,170,2012-10-21 03:32:00
10:52 PM,47.5,42.1,82,29.81,10.0,South,5.8,-,N/A,,Clear,170,2012-10-21 03:52:00
11:32 PM,47.1,42.1,83,29.82,10.0,South,5.8,-,N/A,,Clear,170,2012-10-21 04:32:00
11:52 PM,46.8,41.9,83,29.82,10.0,South,8.1,-,N/A,,Clear,170,2012-10-21 04:52:00